FW1034 Weather Reports


Display with metric or nautical units.
time (UTC)temp
F
wind
direction
speed
MPH
gust
MPH
rain 1hr
in
rain 24hr
in
rain mn
in
humidity
%
barometer
mb
20190325051420 54 113 3.0 5.0 0.00 0.59 0.00 98 1026.2
20190325050919 54 113 4.0 5.0 0.00 0.59 0.00 98 1026.2
20190325050419 53 135 3.0 5.0 0.00 0.59 0.00 98 1026.6
20190325045920 53 135 2.0 5.0 0.00 0.59 0.59 98 1026.6
20190325045420 53 113 3.0 5.0 0.00 0.59 0.59 98 1026.6
20190325044920 53 135 3.0 5.0 0.00 0.59 0.59 98 1027.1
20190325044419 53 113 3.0 4.0 0.00 0.59 0.59 98 1027.1
20190325043919 53 113 2.0 4.0 0.00 0.59 0.59 98 1027.1
20190325043419 53 158 2.0 4.0 0.00 0.59 0.59 98 1026.6
20190325042919 53 113 2.0 4.0 0.00 0.59 0.59 98 1027.1
20190325042419 53 113 2.0 4.0 0.00 0.59 0.59 98 1027.1
20190325041920 53 45 2.0 4.0 0.00 0.59 0.59 98 1027.1
20190325041419 53 113 1.0 4.0 0.00 0.59 0.59 98 1027.1
20190325040919 53 113 1.0 4.0 0.00 0.59 0.59 98 1027.1
20190325040417 53 68 2.0 6.0 0.00 0.59 0.59 98 1027.1
20190325035915 53 45 3.0 6.0 0.00 0.59 0.59 98 1027.1
20190325035415 53 90 2.0 7.0 0.00 0.59 0.59 98 1027.1
20190325034912 53 90 3.0 7.0 0.00 0.59 0.59 98 1027.1
20190325034409 53 68 4.0 6.0 0.00 0.59 0.59 98 1027.1
20190325033910 53 338 4.0 6.0 0.00 0.59 0.59 98 1027.1
20190325033408 53 23 4.0 6.0 0.00 0.59 0.59 98 1027.1
20190325032908 53 158 4.0 7.0 0.00 0.59 0.59 98 1027.1
20190325032405 53 90 4.0 7.0 0.00 0.59 0.59 98 1027.1
20190325031900 53 113 5.0 7.0 0.00 0.59 0.59 98 1027.5
20190325031359 53 90 4.0 7.0 0.00 0.59 0.59 98 1027.1
20190325030900 53 158 4.0 7.0 0.00 0.59 0.59 98 1027.1
20190325030401 53 113 6.0 7.0 0.00 0.59 0.59 98 1027.1
20190325025859 53 113 5.0 8.0 0.00 0.59 0.59 98 1027.1
20190325025359 53 113 4.0 8.0 0.00 0.59 0.59 98 1027.1
20190325024859 54 113 2.0 4.0 0.00 0.59 0.59 98 1027.1
20190325024359 54 113 2.0 4.0 0.00 0.59 0.59 98 1026.6
20190325023900 54 135 2.0 3.0 0.00 0.59 0.59 96 1027.1
20190325023401 54 113 0.0 0.0 0.00 0.59 0.59 95 1027.1
20190325022859 54 180 0.0 2.0 0.00 0.59 0.59 93 1026.6
20190325022359 54 180 0.0 2.0 0.00 0.59 0.59 93 1026.6
20190325021859 54 113 0.0 2.0 0.00 0.59 0.59 91 1026.6
20190325021359 54 45 1.0 5.0 0.00 0.59 0.59 91 1026.6
20190325020859 54 23 3.0 5.0 0.00 0.59 0.59 91 1026.6
20190325020359 53 90 3.0 6.0 0.00 0.59 0.59 93 1026.2
20190325015859 53 113 4.0 6.0 0.00 0.59 0.59 96 1026.2
20190325015359 53 90 3.0 5.0 0.00 0.59 0.59 98 1026.6
20190325014900 53 113 2.0 3.0 0.00 0.59 0.59 98 1026.2
20190325014359 53 90 2.0 3.0 0.00 0.59 0.59 98 1026.2
20190325013859 53 113 0.0 2.0 0.00 0.59 0.59 98 1026.2
20190325013400 53 113 0.0 0.0 0.00 0.59 0.59 98 1026.2
20190325012859 53 113 0.0 3.0 0.00 0.59 0.59 98 1026.2
20190325012359 53 113 1.0 3.0 0.00 0.59 0.59 98 1026.2
20190325011859 53 113 0.0 2.0 0.00 0.59 0.59 98 1026.2
20190325011359 53 135 0.0 0.0 0.00 0.59 0.59 98 1026.2
20190325010859 53 135 0.0 0.0 0.00 0.59 0.59 98 1025.7
20190325010359 53 113 0.0 1.0 0.00 0.59 0.59 98 1026.2
20190325005900 53 135 0.0 1.0 0.00 0.59 0.59 98 1025.7
20190325005359 53 180 0.0 1.0 0.00 0.59 0.59 98 1026.2
20190325004859 53 113 0.0 1.0 0.00 0.59 0.59 98 1025.7
20190325004401 53 90 0.0 1.0 0.00 0.59 0.59 98 1025.7
20190325003859 52 68 0.0 3.0 0.00 0.59 0.59 98 1025.7
20190325003359 52 23 1.0 3.0 0.00 0.59 0.59 98 1025.7
20190325002859 52 68 0.0 0.0 0.00 0.59 0.59 98 1025.7
20190325002359 53 90 0.0 1.0 0.00 0.59 0.59 98 1025.7
20190325001859 53 113 0.0 1.0 0.00 0.59 0.59 98 1025.7
20190325001359 53 23 0.0 0.0 0.00 0.59 0.59 98 1025.7
20190325000859 53 68 0.0 0.0 0.00 0.59 0.59 98 1025.7
20190325000359 53 315 0.0 0.0 0.00 0.59 0.59 98 1025.7
20190324235900 53 338 0.0 0.0 0.00 0.59 0.59 98 1025.7
20190324235359 53 90 0.0 0.0 0.00 0.59 0.59 98 1025.7
20190324234859 53 270 0.0 4.0 0.00 0.59 0.59 98 1025.7
20190324234401 53 270 2.0 4.0 0.00 0.59 0.59 98 1025.3
20190324233859 53 338 3.0 4.0 0.00 0.59 0.59 98 1025.7
20190324233359 53 0 0.0 3.0 0.00 0.59 0.59 98 1025.7
20190324232900 53 270 1.0 3.0 0.01 0.59 0.59 98 1025.3
20190324232359 53 315 2.0 3.0 0.02 0.59 0.59 98 1025.3
20190324231858 53 338 2.0 3.0 0.03 0.59 0.59 98 1025.7
20190324231359 53 293 1.0 3.0 0.05 0.59 0.59 98 1025.7
20190324230859 53 0 0.0 3.0 0.11 0.59 0.59 98 1025.7
20190324230359 53 0 1.0 6.0 0.15 0.59 0.59 98 1025.7
20190324225859 53 0 3.0 6.0 0.17 0.59 0.59 98 1025.7
20190324225400 53 338 4.0 6.0 0.18 0.59 0.59 98 1025.7
20190324224859 52 338 4.0 6.0 0.21 0.59 0.59 98 1025.7
20190324224359 53 315 1.0 4.0 0.24 0.59 0.59 98 1025.7
20190324223859 53 90 0.0 5.0 0.26 0.59 0.59 98 1025.7
20190324223359 52 45 3.0 5.0 0.27 0.59 0.59 98 1025.7
20190324222859 52 315 3.0 5.0 0.26 0.58 0.58 98 1025.7
20190324222359 52 338 1.0 5.0 0.25 0.57 0.57 98 1025.7
20190324221859 53 23 3.0 6.0 0.24 0.56 0.56 98 1025.7
20190324221359 53 315 4.0 6.0 0.22 0.53 0.53 98 1025.7
20190324220900 53 338 3.0 6.0 0.17 0.48 0.49 98 1025.3
20190324220359 53 293 3.0 6.0 0.13 0.44 0.44 98 1025.3
20190324215858 53 270 4.0 6.0 0.11 0.42 0.42 98 1025.3
20190324215359 53 293 4.0 7.0 0.10 0.41 0.41 98 1025.3
20190324214859 53 315 5.0 7.0 0.08 0.38 0.38 98 1025.3
20190324214358 53 338 5.0 7.0 0.05 0.35 0.35 98 1025.3
20190324213900 53 338 3.0 5.0 0.03 0.33 0.33 98 1025.3
20190324213359 53 293 3.0 5.0 0.02 0.32 0.32 98 1025.3
20190324212858 53 248 4.0 5.0 0.02 0.32 0.32 98 1024.9
20190324212400 54 315 3.0 6.0 0.02 0.32 0.32 98 1025.3
20190324211849 54 23 4.0 6.0 0.02 0.32 0.32 98 1025.3
20190324211340 54 338 3.0 6.0 0.01 0.31 0.31 98 1024.9
20190324210839 54 315 4.0 5.0 0.01 0.31 0.31 98 1025.3
20190324210340 54 293 3.0 5.0 0.01 0.31 0.31 98 1025.3
20190324205839 54 293 0.0 3.0 0.01 0.31 0.31 98 1025.3
20190324205340 54 293 1.0 3.0 0.01 0.31 0.31 98 1025.3
20190324204840 54 338 2.0 5.0 0.00 0.30 0.30 98 1025.3
20190324204339 54 315 3.0 5.0 0.07 0.30 0.30 98 1025.3
20190324203840 54 315 3.0 5.0 0.11 0.30 0.30 98 1025.3
20190324203339 55 293 3.0 5.0 0.17 0.30 0.30 98 1025.3
20190324202839 55 293 3.0 5.0 0.20 0.30 0.30 98 1024.9
20190324202343 55 270 3.0 4.0 0.20 0.30 0.30 98 1024.9
20190324201840 55 338 3.0 7.0 0.20 0.30 0.30 98 1024.9
20190324201339 55 315 5.0 7.0 0.20 0.30 0.30 98 1024.9
20190324200839 55 315 2.0 5.0 0.21 0.30 0.30 98 1024.9
20190324200339 56 45 0.0 0.0 0.21 0.30 0.30 98 1024.9
20190324195839 56 68 0.0 0.0 0.21 0.30 0.30 98 1025.3
20190324195340 56 113 0.0 1.0 0.24 0.30 0.30 98 1024.9
20190324194840 55 135 0.0 2.0 0.27 0.30 0.30 98 1024.9
20190324194339 56 113 0.0 2.0 0.23 0.23 0.23 98 1024.9
20190324193840 56 113 0.0 2.0 0.19 0.19 0.19 98 1024.9
20190324193339 56 158 0.0 2.0 0.13 0.13 0.13 98 1025.3
20190324192839 55 113 1.0 2.0 0.10 0.10 0.10 96 1025.3
20190324192340 56 315 0.0 2.0 0.10 0.10 0.10 98 1025.3
20190324191837 56 180 0.0 3.0 0.10 0.10 0.10 98 1024.9
20190324191335 56 135 2.0 3.0 0.10 0.10 0.10 98 1025.3
20190324190834 56 180 1.0 5.0 0.09 0.09 0.09 98 1025.3
20190324190332 57 158 4.0 5.0 0.09 0.09 0.09 98 1025.7
20190324185832 58 113 3.0 4.0 0.08 0.08 0.09 96 1025.3
20190324185329 59 158 1.0 4.0 0.06 0.06 0.06 93 1025.7
20190324184827 61 135 2.0 4.0 0.01 0.01 0.02 90 1025.7
20190324184326 63 113 1.0 6.0 0.00 0.00 0.00 90 1025.3
20190324183825 63 113 3.0 6.0 0.00 0.00 0.00 86 1025.3
20190324183324 64 113 2.0 5.0 0.00 0.00 0.00 85 1025.3
20190324182822 65 248 1.0 6.0 0.00 0.00 0.00 81 1025.3
20190324182322 64 135 4.0 6.0 0.00 0.00 0.00 85 1025.3
20190324181821 65 45 3.0 6.0 0.00 0.00 0.00 83 1025.3
20190324181321 65 68 4.0 9.0 0.00 0.00 0.00 83 1025.3
20190324180822 65 113 6.0 9.0 0.00 0.00 0.00 83 1025.3
20190324180322 65 90 6.0 9.0 0.00 0.00 0.00 83 1025.7
20190324175822 65 113 4.0 9.0 0.00 0.00 0.00 85 1025.7
20190324175321 64 158 5.0 8.0 0.00 0.00 0.00 85 1025.7
20190324174821 65 90 4.0 9.0 0.00 0.00 0.00 85 1025.3
20190324174322 64 68 5.0 9.0 0.00 0.00 0.00 83 1025.7
20190324173821 65 180 6.0 8.0 0.00 0.00 0.00 81 1025.7
20190324173323 65 90 3.0 11.0 0.00 0.00 0.00 83 1026.2
20190324172821 65 315 3.0 11.0 0.00 0.00 0.00 88 1026.2
20190324172320 65 23 1.0 4.0 0.00 0.00 0.00 86 1026.2
20190324171819 67 23 2.0 4.0 0.00 0.00 0.00 83 1026.2
20190324171317 67 113 2.0 5.0 0.00 0.00 0.00 78 1026.2
20190324170818 69 0 3.0 5.0 0.00 0.00 0.00 78 1026.2
20190324170315 68 45 2.0 7.0 0.00 0.00 0.00 75 1026.6
20190324165811 68 113 4.0 7.0 0.00 0.00 0.00 75 1026.2
20190324165311 71 135 4.0 9.0 0.00 0.00 0.00 71 1026.6
20190324164809 72 68 6.0 9.0 0.00 0.00 0.00 70 1026.6
20190324164310 70 23 5.0 8.0 0.00 0.00 0.00 71 1026.6
20190324163807 68 90 6.0 7.0 0.00 0.00 0.00 78 1026.6
20190324163305 67 113 4.0 7.0 0.00 0.00 0.00 80 1027.1
20190324162802 68 68 4.0 7.0 0.00 0.00 0.00 78 1027.1
20190324162301 68 113 3.0 6.0 0.00 0.00 0.00 74 1027.1
20190324161802 67 113 4.0 6.0 0.00 0.00 0.00 78 1027.1
20190324161259 68 113 3.0 6.0 0.00 0.00 0.00 75 1027.5
20190324160758 70 113 4.0 9.0 0.00 0.00 0.00 71 1027.5
20190324160257 69 113 5.0 9.0 0.00 0.00 0.00 74 1027.5
20190324155755 69 113 5.0 8.0 0.00 0.00 0.00 78 1027.5
20190324155253 68 113 5.0 8.0 0.00 0.00 0.00 78 1027.8
20190324154752 68 113 6.0 9.0 0.00 0.00 0.00 76 1027.5
20190324154251 67 113 6.0 9.0 0.00 0.00 0.00 80 1027.8
20190324153744 67 113 6.0 8.0 0.00 0.00 0.00 79 1027.8
20190324153242 67 135 6.0 8.0 0.00 0.00 0.00 80 1027.8
20190324152742 67 90 6.0 10.0 0.00 0.00 0.00 80 1027.8
20190324152242 66 135 7.0 10.0 0.00 0.00 0.00 80 1027.8
20190324151742 64 113 6.0 9.0 0.00 0.00 0.00 85 1028.4
20190324151241 62 135 6.0 9.0 0.00 0.00 0.00 88 1028.4
20190324150741 62 113 5.0 8.0 0.00 0.00 0.00 88 1028.4
20190324150238 62 158 4.0 8.0 0.00 0.00 0.00 90 1028.4
20190324145736 62 113 3.0 6.0 0.00 0.00 0.00 90 1028.4
20190324145236 62 113 4.0 7.0 0.00 0.00 0.00 86 1028.4
20190324144734 63 113 5.0 9.0 0.00 0.00 0.00 85 1028.4
20190324144234 65 113 6.0 9.0 0.00 0.00 0.00 83 1028.4
20190324143730 64 135 4.0 7.0 0.00 0.00 0.00 86 1028.4
20190324143230 63 113 3.0 7.0 0.00 0.00 0.00 86 1027.8
20190324142727 63 113 5.0 9.0 0.00 0.00 0.00 86 1028.4
20190324142227 65 113 6.0 9.0 0.00 0.00 0.00 85 1028.4
20190324141726 62 113 6.0 10.0 0.00 0.00 0.00 88 1028.4
20190324141224 63 113 6.0 10.0 0.00 0.00 0.00 88 1028.4
20190324140722 64 158 8.0 10.0 0.00 0.00 0.00 85 1028.4
20190324140222 65 113 7.0 10.0 0.00 0.00 0.00 86 1027.8
20190324135722 64 90 7.0 10.0 0.00 0.00 0.00 88 1027.8
20190324135222 64 113 6.0 8.0 0.00 0.00 0.00 88 1027.8
20190324134721 62 113 6.0 8.0 0.00 0.00 0.00 91 1027.8
20190324134222 62 113 6.0 8.0 0.00 0.00 0.00 91 1027.8
20190324133722 61 113 4.0 8.0 0.00 0.00 0.00 91 1027.8
20190324133222 62 113 5.0 8.0 0.00 0.00 0.00 91 1027.8
20190324132722 62 113 4.0 9.0 0.00 0.00 0.00 91 1027.8
20190324132222 60 113 6.0 9.0 0.00 0.00 0.00 93 1027.5
20190324131723 61 113 5.0 6.0 0.00 0.00 0.00 93 1027.8
20190324131221 60 113 4.0 6.0 0.00 0.00 0.00 95 1027.8
20190324130722 59 113 4.0 6.0 0.00 0.00 0.00 98 1027.8
20190324130223 58 90 4.0 6.0 0.00 0.00 0.00 98 1027.8
20190324125722 58 135 4.0 6.0 0.00 0.00 0.00 98 1027.8
20190324125221 57 135 2.0 5.0 0.00 0.00 0.00 98 1027.5
20190324124721 57 113 3.0 5.0 0.00 0.00 0.00 98 1027.8
20190324124221 57 113 3.0 5.0 0.00 0.00 0.00 98 1027.8
20190324123721 57 113 3.0 5.0 0.00 0.00 0.00 98 1027.5
20190324123222 56 113 3.0 4.0 0.00 0.00 0.00 98 1027.5
20190324122723 56 113 3.0 4.0 0.00 0.00 0.00 98 1027.5
20190324122221 56 113 2.0 5.0 0.00 0.00 0.00 98 1027.5
20190324121721 55 113 3.0 5.0 0.00 0.00 0.00 98 1027.5
20190324121220 55 113 3.0 4.0 0.00 0.00 0.00 98 1027.5
20190324120720 55 135 2.0 4.0 0.00 0.00 0.00 98 1027.5
20190324120221 55 135 3.0 5.0 0.00 0.00 0.00 98 1027.5
20190324115721 55 113 3.0 5.0 0.00 0.00 0.00 98 1027.1
20190324115221 55 113 2.0 5.0 0.00 0.00 0.00 98 1027.1
20190324114720 55 113 2.0 4.0 0.00 0.00 0.00 98 1027.1
20190324114221 54 113 2.0 3.0 0.00 0.00 0.00 98 1027.1
20190324113721 54 113 1.0 3.0 0.00 0.00 0.00 98 1026.6
20190324113221 54 113 0.0 0.0 0.00 0.00 0.00 98 1026.6
20190324112721 54 68 0.0 0.0 0.00 0.00 0.00 98 1026.6
20190324112221 54 90 0.0 0.0 0.00 0.00 0.00 98 1026.6
20190324111721 54 68 0.0 1.0 0.00 0.00 0.00 98 1026.6
20190324111220 54 90 0.0 2.0 0.00 0.00 0.00 98 1026.6
20190324110721 54 90 0.0 4.0 0.00 0.00 0.00 98 1026.2
20190324110221 54 113 1.0 5.0 0.00 0.00 0.00 98 1026.2
20190324105721 54 158 2.0 5.0 0.00 0.00 0.00 98 1026.2
20190324105221 54 158 2.0 4.0 0.00 0.00 0.00 98 1026.2
20190324104721 54 113 3.0 4.0 0.00 0.00 0.00 98 1026.2
20190324104222 54 135 2.0 5.0 0.00 0.00 0.00 98 1026.2
20190324103721 54 113 3.0 5.0 0.00 0.00 0.00 98 1026.2
20190324103221 54 135 4.0 5.0 0.00 0.00 0.00 98 1026.2
20190324102721 54 113 4.0 5.0 0.00 0.00 0.00 98 1026.2
20190324102221 54 113 3.0 5.0 0.00 0.00 0.00 98 1026.2
20190324101721 54 113 2.0 3.0 0.00 0.00 0.00 98 1026.2
20190324101221 55 135 1.0 3.0 0.00 0.00 0.00 98 1025.7
20190324100720 55 113 0.0 0.0 0.00 0.00 0.00 98 1025.7
20190324100220 55 113 0.0 0.0 0.00 0.00 0.00 98 1026.2
20190324095720 55 158 0.0 2.0 0.00 0.00 0.00 98 1025.7
20190324095221 55 113 0.0 2.0 0.00 0.00 0.00 98 1025.7
20190324094721 55 113 0.0 2.0 0.00 0.00 0.00 98 1025.7
20190324094222 55 158 0.0 3.0 0.00 0.00 0.00 98 1025.7
20190324093721 55 135 1.0 3.0 0.00 0.00 0.00 98 1026.2
20190324093221 55 158 1.0 2.0 0.00 0.00 0.00 98 1026.2
20190324092721 55 135 0.0 1.0 0.00 0.00 0.00 98 1025.7
20190324092221 55 135 0.0 2.0 0.00 0.00 0.00 98 1025.7
20190324091721 55 135 0.0 3.0 0.00 0.00 0.00 98 1025.7
20190324091221 55 158 1.0 3.0 0.00 0.00 0.00 98 1025.7
20190324090720 55 68 1.0 4.0 0.00 0.00 0.00 98 1025.7
20190324090220 55 68 2.0 4.0 0.00 0.00 0.00 98 1025.7
20190324085721 55 113 2.0 4.0 0.00 0.00 0.00 98 1025.7
20190324085221 55 158 0.0 4.0 0.00 0.00 0.00 98 1025.7
20190324084720 55 113 2.0 4.0 0.00 0.00 0.00 98 1025.7
20190324084220 55 113 2.0 6.0 0.00 0.00 0.00 98 1025.7
20190324083722 55 113 3.0 6.0 0.00 0.00 0.00 98 1025.7
20190324083220 55 113 3.0 6.0 0.00 0.00 0.00 98 1025.7
20190324082721 55 158 0.0 3.0 0.00 0.00 0.00 98 1025.7
20190324082221 55 135 0.0 3.0 0.00 0.00 0.00 98 1025.7
20190324081721 55 113 1.0 4.0 0.00 0.00 0.00 98 1025.7
20190324081220 55 113 2.0 4.0 0.00 0.00 0.00 98 1025.7
20190324080722 55 113 2.0 4.0 0.00 0.00 0.00 98 1025.7
20190324080220 55 113 2.0 5.0 0.00 0.00 0.00 98 1025.3
20190324075720 55 113 3.0 5.0 0.00 0.00 0.00 98 1025.7
20190324075220 55 90 2.0 4.0 0.00 0.00 0.00 98 1025.7
20190324074720 55 135 3.0 6.0 0.00 0.00 0.00 98 1025.7
20190324074220 55 135 4.0 6.0 0.00 0.00 0.00 98 1025.7
20190324073721 55 158 3.0 6.0 0.00 0.00 0.00 98 1025.7
20190324073220 55 68 4.0 6.0 0.00 0.00 0.00 98 1025.7
20190324072719 54 113 4.0 5.0 0.00 0.00 0.00 98 1025.7
20190324072217 54 113 3.0 6.0 0.00 0.00 0.00 98 1025.7
20190324071716 54 90 4.0 6.0 0.00 0.00 0.00 98 1025.7
20190324071216 54 158 4.0 5.0 0.00 0.00 0.00 98 1025.7
20190324070712 54 113 4.0 5.0 0.00 0.00 0.00 98 1025.7
20190324070211 54 135 1.0 4.0 0.00 0.00 0.00 98 1025.7
20190324065711 54 90 1.0 2.0 0.00 0.00 0.00 98 1025.7
20190324065203 54 68 0.0 2.0 0.00 0.00 0.00 98 1026.2
20190324064701 55 113 0.0 3.0 0.00 0.00 0.00 98 1026.2
20190324064201 55 113 1.0 4.0 0.00 0.00 0.00 98 1026.2
20190324063702 55 113 1.0 6.0 0.00 0.00 0.00 98 1026.2
20190324063200 55 113 4.0 6.0 0.00 0.00 0.00 98 1026.2
20190324062701 55 135 4.0 5.0 0.00 0.00 0.00 98 1026.6
20190324062201 55 113 3.0 4.0 0.00 0.00 0.00 98 1026.2
20190324061701 55 113 2.0 3.0 0.00 0.00 0.00 98 1026.6
20190324061201 55 90 0.0 2.0 0.00 0.00 0.00 98 1026.6
20190324060702 55 90 0.0 2.0 0.00 0.00 0.00 98 1026.6
20190324060200 55 113 0.0 4.0 0.00 0.00 0.00 98 1026.6
20190324055701 55 180 2.0 5.0 0.00 0.00 0.00 98 1027.1
20190324055201 55 135 3.0 5.0 0.00 0.00 0.00 98 1026.6
20190324054700 55 158 3.0 5.0 0.00 0.00 0.00 98 1027.1
20190324054201 55 113 3.0 5.0 0.00 0.00 0.00 98 1027.1
20190324053701 56 135 2.0 4.0 0.00 0.00 0.00 98 1027.1
20190324053201 56 113 2.0 5.0 0.00 0.00 0.00 98 1027.1
20190324052700 56 113 2.0 5.0 0.00 0.00 0.00 98 1027.5
20190324052158 56 113 3.0 5.0 0.00 0.00 0.00 98 1027.5